Regional Weather Roundup
Issued by NWS

Home | Current Version | Previous Version | Graphics & Text | Print | Product List | Glossary Off
Versions: 1 2 3 4 5 6 7 8 9 10 11 12 13 14 15 16 17 18 19 20 21 22 23 24 25 26 27 28 29 30 31 32 33 34 35 36 37 38 39 40 41 42 43 44 45 46 47 48 49 50

000
ASUS43 KMKX 031321
RWRWI

WISCONSIN REGIONAL WEATHER ROUNDUP
NATIONAL WEATHER SERVICE MILWAUKEE/SULLIVAN WI
700 AM CST SAT DEC 03 2016

NOTE: "FAIR" INDICATES FEW OR NO CLOUDS BELOW 12,000 FEET WITH NO
SIGNIFICANT WEATHER AND/OR OBSTRUCTIONS TO VISIBILITY.

WIZ001-002-006>008-014>016-023>028-031400-
NORTHWEST WISCONSIN

CITY           SKY/WX    TMP DP  RH WIND       PRES   REMARKS
SUPERIOR ARPT  CLOUDY    29  24  82 SW3       30.29S
ASHLAND        CLOUDY    30  26  85 SW6       30.28R WCI  24
HAYWARD        CLOUDY    29  24  82 SW3       30.27R
SIREN          CLOUDY    29  25  85 CALM      30.28S
CUMBERLAND     CLOUDY    28  25  86 W3        30.27S
RICE LAKE      CLOUDY    29  26  86 SW3       30.30S
CHETEK         MIX PCPN  29  26  88 CALM      30.29S
LADYSMITH      MIX PCPN  29  27  93 SW3       30.30R
EAU CLAIRE     CLOUDY    29  24  82 SW9       30.30R WCI  20
MENOMONIE      CLOUDY    30  26  86 SW7       30.31S WCI  23
NEW RICHMOND   CLOUDY    29  27  91 SW5       30.29S WCI  24
OSCEOLA        CLOUDY    29  25  85 CALM      30.32S
$$

WIZ003>005-009-010-017-018-031400-
NORTH CENTRAL WISCONSIN

CITY           SKY/WX    TMP DP  RH WIND       PRES   REMARKS
MANITOWISH WTR CLOUDY    26  26 100 CALM      30.24R
ARBOR VITAE    CLOUDY    27  25  93 CALM      30.24S
WOODRUFF       CLOUDY    27  25  93 CALM      30.24S
RHINELANDER    CLOUDY    27  23  85 W6        30.26R WCI  20
EAGLE RIVER    CLOUDY    27  27  99 CALM      30.23S
LAND O LAKES   CLOUDY    28  26  90 W3        30.24S
PHILLIPS       CLOUDY    26  26  97 SW3       30.25S
TOMAHAWK       CLOUDY    26  22  82 CALM      30.27R
MEDFORD        CLOUDY    27  21  78 W8        30.26S WCI  19
MERRILL        CLOUDY    27  23  85 NW5       30.28S WCI  22
$$

WIZ029-030-035-036-043>047-031400-
CENTRAL WISCONSIN

CITY           SKY/WX    TMP DP  RH WIND       PRES   REMARKS
WAUSAU         CLOUDY    28  22  78 W5        30.27S WCI  23
MOSINEE        CLOUDY    28  25  86 W7        30.28F WCI  21
MARSHFIELD     CLOUDY    29  21  72 W5        30.27S WCI  24
STEVENS POINT  CLOUDY    28  21  75 NW7       30.29F WCI  21
WAUPACA        CLOUDY    32  24  71 W3        30.31S
WAUTOMA        CLOUDY    30  24  78 W3        30.32R
WISC RAPIDS    CLOUDY    30  22  72 NW6       30.31S WCI  24
CAMP DOUGLAS   CLOUDY    30  21  70 SW9       30.32R WCI  21
$$

WIZ011>013-019>022-031-037>040-048>050-031400-
NORTHEAST WISCONSIN

CITY           SKY/WX    TMP DP  RH WIND       PRES   REMARKS
ANTIGO         CLOUDY    26  23  90 W7        30.26S WCI  18
SHAWANO        CLOUDY    32  25  74 W3        30.30S
OCONTO         CLOUDY    32  26  80 W7        30.29S WCI  26
STURGEON BAY   LGT RAIN  33  28  81 W9        30.29R WCI  25
GREEN BAY      CLOUDY    33  27  78 W14       30.30R WCI  23
MANITOWOC      CLOUDY    33  25  72 MISG      30.30S
APPLETON       CLOUDY    30  21  69 W7        30.29S WCI  23
CLINTONVILLE   CLOUDY    32  23  69 W8        30.30S WCI  25
OSHKOSH        CLOUDY    31  24  75 W7        30.31R WCI  24
$$

WIZ032>034-041-042-053>061-031400-
SOUTHWEST WISCONSIN

CITY           SKY/WX    TMP DP  RH WIND       PRES   REMARKS
LA CROSSE      CLOUDY    32  21  64 NW5       30.33F WCI  27
SPARTA         CLOUDY    30  23  75 W3        30.34R
VIROQUA        CLOUDY    28  24  84 CALM      30.30F
BOSCOBEL       CLOUDY    32  22  66 W7        30.37R WCI  26
PRAIRIE DU CHI CLOUDY    31  23  71 CALM      30.34F
PLATTEVILLE    CLOUDY    30  26  86 W12       30.35S WCI  21
$$

WIZ056-057-062-063-064-067-068-031400-
SOUTH CENTRAL WISCONSIN

CITY           SKY/WX    TMP DP  RH WIND       PRES   REMARKS
REEDSBURG      CLOUDY    29  22  74 W7        30.33S WCI  22
BARABOO/DELLS  CLOUDY    30  21  70 W9        30.32S WCI  21
LONE ROCK      CLOUDY    30  22  72 W12       30.36R WCI  20
MINERAL POINT  CLOUDY    32  27  80 W9G16     30.33S WCI  24
MADISON        CLOUDY    30  21  69 VRB6      30.34R WCI  24
MIDDLETON      CLOUDY    31  23  72 W8        30.35R WCI  24
WATERTOWN      CLOUDY    30  24  78 W5        30.33R WCI  25
MONROE         CLOUDY    30  23  74 W7        30.33S WCI  23
JANESVILLE     CLOUDY    32  23  69 W6        30.35R WCI  26
$$

WIZ051-052-058>065-066-070>072-031400-
SOUTHEAST WISCONSIN

CITY           SKY/WX    TMP DP  RH WIND       PRES   REMARKS
MILWAUKEE      CLOUDY    33  22  63 W8        30.34R WCI  26
WAUKESHA       CLOUDY    28  21  74 W7        30.34R WCI  21
MILWAUKEE/TIMM CLOUDY    30  19  64 W8        30.34R WCI  23
RACINE         CLOUDY    32  22  66 W6        30.36R WCI  26
BURLINGTON     CLOUDY    31  24  76 NW5       30.34S WCI  26
KENOSHA        CLOUDY    31  23  72 NW7       30.34S WCI  24
FOND DU LAC    CLOUDY    31  22  69 W9        30.32R WCI  23
SHEBOYGAN      CLOUDY    31  23  72 W9        30.31S WCI  23
WEST BEND      CLOUDY    30  27  86 W8        30.32R WCI  23
JUNEAU         CLOUDY    30  24  78 SW8       30.33S WCI  22
$$

LSZ147-162-031400-
LAKE SUPERIOR

STATION/POSITION TIME  TEMP    WIND        PRES    WAVE
                       AIR SEA DIR/SP/G            HT/PER
                 (UTC) (F)     (DEG/KT/KT) (MB)    (FT/S)
DEVILS ISLAND    1300   33     260/  6/  7 1025.7R
PORT WING        1230   30     210/  6/  8 1025.4R
SAXON HARBOR     1240   31     200/  6/  9 1025.1R
$$

LMZ867-665-643>646-031400-
LAKE MICHIGAN

STATION/POSITION TIME  TEMP    WIND        PRES    WAVE
                       AIR SEA DIR/SP/G            HT/PER
                 (UTC) (F)     (DEG/KT/KT) (MB)    (FT/S)
CHAMBERS ISLAND  1240   35     290/  5/  8 1024.4R
NORTHPORT PIER   1240   37     290/  6/ 11 1024.4S
SISTER BAY       1238   36     320/ 11/ 15   N/A
ALGOMA LAKESHORE 1206          310/  5/ 10   N/A
KEWAUNEE LAKESHO 1254   32     270/ 10/ 13 1025.1R
SHEBOYGAN LAKESH 1300   32     260/  7/  9 1027.1R
PORT WASHINGTON  1240   32     260/  4/  9 1028.1R
MILWAUKEE LAKESH 1300   32     280/  7/  8   N/A
S MID LAKE BUOY  1250   36 49  260/ 10/ 16 1027.3R   1/ 5
KENOSHA   LAKESH 1300   32     280/  6/ 10 1027.4
$$

TC  - TEMPERATURE IN CELSIUS
VSB - VISIBILITY IN STATUTE MILES
WCI - WIND CHILL INDEX
HX  - HEAT INDEX





USA.gov is the U.S. government's official web portal to all federal, state and local government web resources and services.